Location: Grasslands National Park East Block
(49.0708°N, 106.5295°W)
Time: 14:52:15
(UTC-06:00)

SR - Pass Details

Date: 23 October 2019
Orbit: 574 x 882 km, 66.7° (Epoch: 16 November)

Event Time Altitude Azimuth Distance (km) Brightness Sun altitude
Exits shadow 03:33:05 14° 3° (N) 2,232 ? -39.5°
Maximum altitude 03:33:43 14° 10° (N) 2,225 ? -39.4°
Drops below altitude 10° 03:36:42 10° 41° (NE) 2,527 ? -39.0°
Sets 03:40:37 0° 66° (ENE) 3,484 ? -38.5°
